Home   Weather   Chandigarh   Past weeks

Flag for India Past Weather in Chandigarh, Chandigarh, India — Yesterday and Last 2 Weeks

Now
82 °F

Fog.


Feels Like: 96 °F
Forecast: 74 / 94 °F
Wind: No wind

Location: Amritsar Airport

Current Time: Sep 29, 2016 at 10:44:37 PM

Latest Report: Sep 29, 2016 at 10:00 PM


Visibility: 2 mi

Pressure: 29.71 "Hg

Humidity: 100%

Dew Point: 82 °F

Location of ChandigarhLocation

Past Weather in Chandigarh — Graph

°F

Chandigarh Temperature Yesterday

Maximum temperature yesterday: 91 °F (at 1:30 PM)
Minimum temperature yesterday: 77 °F (at 6:30 AM)
Average temperature yesterday: 84 °F

High & Low Weather Summary for the Past Weeks

 TemperatureHumidityPressure
High95 °F (Sep 17, 1:30 PM)100% (Sep 14, 9:30 PM)29.86 "Hg (Sep 14, 9:30 PM)
Low70 °F (Sep 27, 8:00 AM)56% (Sep 17, 12:00 PM)29.59 "Hg (Sep 20, 5:00 PM)
Average84 °F88%29.71 "Hg
* Reported Sep 14 9:30 PM — Sep 29 9:30 PM, Chandigarh, Weather by CustomWeather, © 2016

Note: Actual official high and low records may vary slightly from our data, if they occured in-between our weather recording intervals... More about our weather records

Advertising

Chandigarh Weather History for the Previous 24 Hours

Scroll right to see more
 ConditionsComfort  
Time TempWeatherWind HumidityBarometerVisibility
9:30 PM
Thu, Sep 29
82 °FFog.No wind100%29.71 "Hg2 mi
9:00 PM84 °FFog.No wind100%29.71 "Hg2 mi
8:30 PM84 °FFog.No wind100%29.71 "Hg2 mi
8:00 PM82 °FFog.No wind100%29.68 "Hg2 mi
7:30 PM84 °FFog.No wind100%29.68 "Hg2 mi
7:00 PM86 °FFog.No wind89%29.68 "Hg2 mi
6:30 PM86 °FScattered clouds.No wind89%29.68 "Hg2 mi
6:00 PM88 °FScattered clouds.No wind75%29.68 "Hg2 mi
5:30 PM90 °FScattered clouds.2 mph63%29.68 "Hg2 mi
5:00 PM91 °FScattered clouds.2 mph59%29.68 "Hg2 mi
4:30 PM91 °FScattered clouds.3 mph63%29.68 "Hg2 mi
4:00 PM91 °FScattered clouds.3 mph67%29.68 "Hg2 mi
3:30 PM91 °FScattered clouds.3 mph71%29.68 "Hg2 mi
3:00 PM91 °FScattered clouds.6 mph71%29.71 "Hg2 mi
2:30 PM91 °FScattered clouds.5 mph71%29.71 "Hg2 mi
1:30 PM91 °FScattered clouds.2 mph67%29.74 "Hg2 mi
1:00 PM91 °FScattered clouds.1 mph71%29.74 "Hg2 mi
12:30 PM90 °FHaze.No wind71%29.77 "Hg2 mi
12:00 PM90 °FHaze.No wind75%29.77 "Hg2 mi
11:30 AM90 °FFog.No wind75%29.77 "Hg1 mi
11:00 AM88 °FFog.No wind84%29.77 "Hg1 mi
10:30 AM88 °FFog.No wind89%29.80 "Hg1 mi
10:00 AM86 °FFog.No wind100%29.80 "Hg1 mi
9:30 AM84 °FFog.No wind100%29.80 "Hg1 mi
9:00 AM82 °FFog.No wind100%29.77 "Hg1 mi
8:30 AM81 °FFog.No wind100%29.77 "Hg1 mi
8:00 AM81 °FFog.No wind100%29.77 "Hg1 mi
7:30 AM79 °FFog.No wind100%29.74 "Hg1 mi
7:00 AM77 °FFog.No wind100%29.74 "Hg1 mi
6:30 AM77 °FFog.No wind100%29.74 "Hg1 mi
6:00 AM77 °FFog.No wind100%29.74 "Hg1 mi
5:30 AM77 °FFog.No wind100%29.71 "Hg1 mi
5:00 AM77 °FFog.No wind100%29.71 "Hg1 mi
4:30 AM77 °FFog.No wind100%29.71 "Hg1 mi
4:00 AM79 °FFog.No wind100%29.71 "Hg1 mi
3:30 AM79 °FFog.No wind100%29.71 "Hg1 mi
3:00 AM79 °FFog.No wind100%29.71 "Hg1 mi
2:00 AM79 °FFog.No wind100%29.71 "Hg1 mi
1:30 AM81 °FFog.No wind100%29.71 "Hg1 mi
1:00 AM81 °FFog.No wind100%29.71 "Hg1 mi
12:30 AM81 °FFog.No wind100%29.71 "Hg1 mi
12:00 AM81 °FFog.No wind100%29.71 "Hg1 mi
11:30 PM
Wed, Sep 28
82 °FFog.No wind100%29.71 "Hg1 mi
11:00 PM82 °FFog.No wind100%29.71 "Hg1 mi
10:30 PM82 °FFog.No wind100%29.71 "Hg1 mi
10:00 PM82 °FFog.No wind100%29.71 "Hg1 mi
Weather by CustomWeather, © 2016

See weather overviewHow to use our weather pages